Location: Bushey
(51.6333°N, 0.3667°W)
Time: 08:31:04
(UTC+00:00)

USA 245 - Visible Passes

Search period start: 21 June 2021 00:00
Search period end: 01 July 2021 00:00
Orbit: 265 x 982 km, 97.9° (Epoch: 18 June)

Date Brightness Start Highest point End Pass type
(mag) Time Alt. Az. Time Alt. Az. Time Alt. Az.
21 Jun 4.5 21:08:19 10° S 21:13:37 76° WSW 21:19:46 10° NNW visible
21 Jun 6.5 22:47:41 10° WSW 22:50:52 16° W 22:54:18 10° NW visible
22 Jun 4.9 21:26:47 10° S 21:32:05 57° W 21:38:09 10° NNW visible
22 Jun 6.8 23:07:59 10° W 23:09:39 11° WNW 23:11:22 10° WNW visible
23 Jun 5.4 21:45:24 10° SSW 21:50:36 42° W 21:56:27 10° NNW visible
24 Jun 5.8 22:04:13 10° SSW 22:09:10 32° W 22:14:39 10° NNW visible
25 Jun 6.2 22:23:14 10° SW 22:27:48 24° W 22:32:43 10° NW visible
26 Jun 4.6 21:03:38 10° SSE 21:09:23 82° WSW 21:15:45 10° NNW visible
26 Jun 6.6 22:42:34 10° SW 22:46:28 18° W 22:50:35 10° NW visible
27 Jun 4.9 21:22:03 10° S 21:27:47 62° W 21:34:04 10° NNW visible
27 Jun 6.7 23:02:23 10° WSW 23:05:10 13° W 23:08:02 10° NW visible
28 Jun 5.3 21:40:37 10° S 21:46:15 47° W 21:52:20 10° NNW visible
29 Jun 5.8 21:59:21 10° SSW 22:04:46 35° W 22:10:30 10° NNW visible
30 Jun 6.2 22:18:18 10° SW 22:23:19 27° W 22:28:34 10° NNW visible
